Location: Unspecified
(0.0000°N, 0.0000°E)
Time: 12:26:23
(UTC+00:00)

ADRAS-J - Pass Details

Date: 19 May 2025
Orbit: 544 x 592 km, 98.2° (Epoch: 16 June)

Event Time Altitude Azimuth Distance (km) Brightness Sun altitude
Rises 04:55:38 0° 19° (NNE) 2,798 ? -14.3°
Reaches altitude 10° 04:57:48 10° 23° (NNE) 1,906 ? -13.8°
Maximum altitude 05:01:52 58° 102° (ESE) 694 ? -12.8°
Drops below altitude 10° 05:05:58 10° 181° (S) 1,925 ? -11.9°
Sets 05:08:10 0° 185° (S) 2,828 ? -11.4°
